EW9582 Weather Reports


time (UTC)temp
C
wind
direction
speed
KPH
gust
KPH
rain 1hr
cm
rain 24hr
cm
rain mn
cm
humidity
%
barometer
mb
20260904000008 30 292 8.0 14.5 0.00 5.64 5.56 73 1011.3
20260903234507 31 309 8.0 14.5 0.00 5.64 5.56 72 1011.3
20260903233007 31 300 6.4 16.1 0.00 5.64 5.56 72 1011.1
20260903231520 31 332 8.0 17.7 0.00 5.64 5.56 72 1011.1
20260903230008 31 287 11.3 17.7 0.00 5.64 5.56 71 1011.1
20260903224515 31 291 14.5 22.5 0.00 5.82 5.56 70 1011.2
20260903223009 31 257 8.0 16.1 0.00 5.82 5.56 71 1011.4
20260903221503 31 299 9.7 22.5 0.00 5.82 5.56 71 1011.2
20260903220002 31 266 9.7 20.9 0.00 5.87 5.56 72 1011.5
20260903214611 31 300 11.3 22.5 0.00 5.87 5.56 73 1011.6
20260903213113 30 303 11.3 24.1 0.00 5.87 5.56 74 1011.9
20260903211609 30 323 11.3 27.4 0.00 5.87 5.56 74 1012.4
20260903210126 31 275 16.1 27.4 0.00 5.87 5.56 68 1012.8
20260903204602 31 273 8.0 17.7 0.00 5.87 5.56 70 1012.4
20260903203110 30 294 8.0 12.9 0.00 5.87 5.56 71 1012.6
20260903201554 28 18 6.4 11.3 0.00 5.87 5.56 77 1012.7
20260903200056 27 36 4.8 12.9 0.00 5.87 5.56 81 1013.1
20260903194553 27 350 8.0 12.9 0.00 5.87 5.56 84 1013.0
20260903193052 26 34 6.4 9.7 0.00 5.87 5.56 86 1013.4
20260903191552 26 350 8.0 12.9 0.00 5.87 5.56 86 1013.7
20260903190051 27 307 4.8 12.9 0.00 5.87 5.56 88 1014.1
20260903184551 27 309 8.0 22.5 0.00 5.87 5.56 87 1014.5
20260903183051 27 279 22.5 35.4 0.00 5.87 5.56 83 1014.7
20260903181550 30 244 22.5 40.2 0.00 5.87 5.56 78 1014.9
20260903180047 30 333 8.0 14.5 0.00 5.87 5.56 80 1014.4
20260903174543 28 318 9.7 12.9 0.00 5.87 5.56 86 1014.3
20260903173039 27 14 8.0 12.9 0.00 5.87 5.56 90 1013.9
20260903171537 26 26 4.8 11.3 0.00 5.87 5.56 92 1014.1
20260903170038 26 10 9.7 14.5 0.00 5.87 5.56 92 1014.0
20260903163039 25 13 11.3 14.5 0.00 5.87 5.56 92 1013.8
20260903161535 25 23 11.3 19.3 0.03 5.87 5.56 93 1014.0
20260903160035 25 22 6.4 12.9 0.03 5.87 5.56 93 1014.1
20260903154541 25 27 8.0 12.9 0.03 5.87 5.56 92 1014.0
20260903153033 25 34 1.6 8.0 0.03 5.87 5.56 92 1013.9
20260903151533 25 26 1.6 11.3 0.00 5.87 5.54 92 1014.0
20260903150031 25 55 0.0 8.0 0.00 5.87 5.54 92 1014.0
20260903144529 25 65 4.8 14.5 0.00 5.87 5.54 91 1013.5
20260903143031 24 5 4.8 12.9 0.00 5.87 5.54 92 1012.9
20260903141528 24 38 4.8 14.5 0.00 5.87 5.54 91 1012.8
20260903140030 24 103 6.4 16.1 0.00 5.87 5.54 92 1012.8
20260903134528 24 86 6.4 14.5 0.00 5.87 5.54 93 1012.7
20260903133027 24 24 4.8 12.9 0.08 5.87 5.54 93 1012.6
20260903131526 24 49 8.0 14.5 0.08 5.87 5.54 94 1012.6
20260903130025 23 15 1.6 17.7 0.13 5.87 5.54 93 1013.1
20260903124524 23 11 6.4 12.9 0.25 5.87 5.54 93 1012.7
20260903123031 23 38 11.3 16.1 0.30 5.77 5.46 92 1012.4
20260903121520 24 25 9.7 16.1 0.38 5.77 5.46 92 1012.1
20260903120020 25 53 4.8 14.5 2.79 5.71 5.41 93 1012.5
20260903114519 24 78 3.2 8.0 4.78 5.61 5.28 93 1012.8
20260903113017 25 10 6.4 11.3 4.67 5.49 5.13 92 1012.5
20260903111515 25 19 16.1 20.9 4.57 5.38 5.05 92 1012.0
20260903104510 26 298 16.1 29.0 0.51 0.84 0.51 91 1012.5
20260903103120 26 11 4.8 14.5 0.48 0.81 0.48 90 1012.1
20260903101508 26 16 9.7 14.5 0.48 0.81 0.48 88 1011.6
20260903100002 27 146 4.8 16.1 0.00 0.33 0.00 89 1011.9
20260903094606 26 49 1.6 8.0 0.00 0.33 0.00 89 1011.6
20260903093110 26 5 1.6 8.0 0.00 0.33 0.00 88 1011.8
20260903091554 26 9 3.2 6.4 0.00 0.33 0.00 87 1012.1
20260903090056 27 355 0.0 6.4 0.00 0.33 0.00 86 1012.3
20260903084550 26 61 0.0 6.4 0.00 0.33 0.00 87 1012.4
20260903083046 26 37 1.6 3.2 0.00 0.33 0.00 88 1012.4
20260903081547 26 31 1.6 4.8 0.00 0.33 0.00 89 1012.7
20260903080043 26 355 3.2 6.4 0.00 0.33 0.00 88 1012.8
20260903074542 26 5 3.2 6.4 0.00 0.33 0.00 88 1012.9
20260903073041 26 13 3.2 6.4 0.00 0.33 0.00 89 1013.0
20260903071538 25 39 1.6 4.8 0.00 0.33 0.00 90 1012.9
20260903070036 25 351 6.4 8.0 0.00 0.33 0.00 89 1013.0
20260903064538 25 5 6.4 11.3 0.00 0.33 0.33 89 1013.0
20260903063104 26 346 8.0 11.3 0.00 0.33 0.33 87 1013.0
20260903061535 26 5 1.6 4.8 0.00 0.33 0.33 85 1012.7
20260903060034 26 46 0.0 6.4 0.00 0.33 0.33 84 1012.8
20260903054533 26 44 4.8 11.3 0.00 0.33 0.33 85 1012.9
20260903053033 25 26 1.6 9.7 0.00 0.33 0.33 88 1013.1
20260903051532 25 5 4.8 9.7 0.00 0.33 0.33 90 1013.2
20260903050031 26 30 4.8 12.9 0.00 0.33 0.33 90 1013.2
20260903044530 25 360 1.6 4.8 0.00 0.33 0.33 90 1013.3
20260903043029 25 15 3.2 4.8 0.00 0.33 0.33 90 1013.2
20260903041532 25 13 3.2 6.4 0.00 0.33 0.33 90 1013.1
20260903040029 25 14 1.6 6.4 0.00 0.33 0.33 90 1013.1
20260903034531 25 17 3.2 8.0 0.00 0.33 0.33 90 1013.0
20260903033030 25 15 4.8 6.4 0.00 0.33 0.33 91 1012.9
20260903031528 25 19 3.2 8.0 0.00 0.33 0.33 91 1012.6
20260903030030 25 17 8.0 14.5 0.00 0.33 0.33 91 1012.6
20260903024527 25 360 4.8 11.3 0.00 0.33 0.33 91 1012.3
20260903023026 25 23 8.0 14.5 0.00 0.33 0.33 90 1012.1
20260903021529 25 44 9.7 17.7 0.00 0.33 0.33 91 1011.8
20260903020025 25 17 8.0 14.5 0.00 0.33 0.33 91 1011.7
20260903014524 25 15 1.6 9.7 0.03 0.33 0.33 91 1011.7
20260903013025 26 5 4.8 11.3 0.05 0.33 0.33 91 1011.4
20260903011524 26 12 8.0 11.3 0.05 0.33 0.33 90 1011.3
20260903010029 26 20 3.2 8.0 0.08 0.33 0.33 90 1011.2
20260903004521 26 20 3.2 11.3 0.05 0.30 0.30 90 1011.3
20260903003020 26 34 0.0 6.4 0.03 0.28 0.28 89 1011.7
20260903001517 26 67 1.6 8.0 0.03 0.28 0.28 88 1012.2